Regional Weather Roundup
Issued by NWS Sterling, VA

Home | Current Version | Previous Version | Graphics & Text | Print | Product List | Glossary On
Versions: 1 2 3 4 5 6 7 8 9 10 11 12 13 14 15 16 17 18 19 20 21 22 23 24 25 26 27 28 29 30 31 32 33 34 35 36 37 38 39 40 41 42 43 44 45 46 47 48 49 50
000
ASUS41 KLWX 060610
RWRLWX

REGIONAL WEATHER ROUNDUP
NATIONAL WEATHER SERVICE BALTIMORE MD/WASHINGTON DC
200 AM EDT WED MAY 06 2015

Note: "FAIR" indicates few or no clouds below 12,000 feet
with no significant weather and/or obstructions to visibility.
 TC=TEMPERATURE CELSIUS

 * =Non NWS site. Station does not report precipitation (e.g. rain,
    snow, etc.), thunder, or fog.

DCZ001-MDZ009-015-VAZ040>042-051-053>054-060700-
WASHINGTON METRO

CITY           SKY/WX    TMP DP  RH WIND       PRES   REMARKS
WASHINGTON NAT PTCLDY    66  62  87 S7        30.22F
DULLES         PTCLDY    63  61  93 S6        30.22F
ANDREWS AFB    CLEAR     64  64  97 SW8       30.21F
FT BELVOIR     FOG       61  59  94 CALM      30.22F VSB 1
QUANTICO       PTCLDY    65  61  87 CALM      30.23F
COLLEGE PARK*  CLEAR     63  61  94 CALM      30.21F
LEESBURG*      CLEAR     63  63 100 S3        30.23F
MANASSAS*        N/A     61  61 100 SE3       30.22F VSB 3/4
GAITHERSBURG*  CLEAR     64  59  82 CALM      30.26F

$$

MDZ006>007-011-014-060700-
BALTIMORE METRO

CITY           SKY/WX    TMP DP  RH WIND       PRES   REMARKS
BWI AIRPORT    PTCLDY    63  60  90 W5        30.20F
MD SCIENCE CTR   N/A     69  59  70 MISG      30.21F
MARTIN STATE   CLEAR     64  63  94 NE5       30.23S
ANNAPOLIS      PTCLDY    66  59  78 VRB7      30.20F
FORT MEADE*      N/A     57  55  94 CALM      30.23F

$$

MDZ012-015-019>023-060700-
MARYLAND EASTERN SHORE

CITY           SKY/WX    TMP DP  RH WIND       PRES   REMARKS
OCEAN CITY     CLEAR     65  56  72 W6        30.22F
SALISBURY      MOCLDY    63  59  87 CALM      30.22F
BAY BRIDGE AP*   N/A    N/A N/A N/A CALM      30.21F
CAMBRIDGE*     PTCLDY    63  59  88 CALM      30.22S
EASTON*        PTCLDY    64  64 100 S3        30.25S

$$

MDZ017>025-060700-
SOUTHERN MARYLAND

CITY           SKY/WX    TMP DP  RH WIND       PRES   REMARKS
PATUXENT RIVER MOCLDY    65  62  90 SW5       30.22S
ST INIGOES     MOCLDY    67  61  81 S6        30.22F
LEONARDTOWN*   MOCLDY    63  61  94 SW3       30.24S

$$

MDZ003>005-060700-
NORTH CENTRAL MARYLAND

CITY           SKY/WX    TMP DP  RH WIND       PRES   REMARKS
FREDERICK*     CLEAR     63  57  82 CALM      30.24F
HAGERSTOWN APT MOCLDY    67  59  75 SE5       30.22S
WESTMINSTER*   PTCLDY    64  61  88 SW6       30.23S

$$

MDZ501>502-060700-
WESTERN MARYLAND

CITY           SKY/WX    TMP DP  RH WIND       PRES   REMARKS
OAKLAND*       PTCLDY    61  59  94 S5        30.30S
CUMBERLAND*    CLEAR     61  59  94 CALM      30.27S

$$

VAZ025>031-060700-
SHENANDOAH VALLEY

CITY           SKY/WX    TMP DP  RH WIND       PRES   REMARKS
WINCHESTER*    CLEAR     64  55  72 SW5       30.22F
FRONT ROYAL*   FAIR      59  59 100 S5        30.22F
LURAY*         FOG       57  57 100 CALM      30.24F VSB 1/4
NEW MARKET*    CLOUDY    56  56 100 CALM      30.24F VSB<1/4
STAUNTON*      PTCLDY    60  57  91 CALM      30.27F
WAYNESBORO*    CLOUDY    64  58  83 CALM      30.25F

$$

WVZ021-048>050-054>055-060700-
EASTERN WEST VIRGINIA PANHANDLE

CITY           SKY/WX    TMP DP  RH WIND       PRES   REMARKS
MARTINSBURG    CLEAR     60  57  89 CALM      30.22F
PETERSBURG*    FOG       56  53  90 CALM      30.25S VSB 1/4

$$

VAZ036>039-050-060700-
CENTRAL FOOTHILLS

CITY           SKY/WX    TMP DP  RH WIND       PRES   REMARKS
CHARLOTTESVILL MOCLDY    64  62  93 SW5       30.23F
CULPEPER*      FOG       59  59 100 CALM      30.23F VSB 1/4
ORANGE*        FOG       61  61 100 CALM      30.25F VSB 1/2
GORDONSVILLE*  FAIR      59  59  99 CALM      30.23F FOG
WARRENTON*     FOG       62  62 100 S3        30.22F VSB 1/4

$$

VAZ055>057-060700-
NORTH AND CENTRAL PIEDMONT

CITY           SKY/WX    TMP DP  RH WIND       PRES   REMARKS
FREDERICKSBRG* PTCLDY    65  65 100 CALM      30.22F
STAFFORD*      PTCLDY    61  50  68 CALM      30.26F FOG

$$

NCZ024-NYZ072-PAZ021-071-VAZ022-071-060700-
OTHER REGIONAL OBSERVATIONS

CITY           SKY/WX    TMP DP  RH WIND       PRES   REMARKS
NEW YORK CITY  CLOUDY    71  46  40 NE6       30.22S
PHILADELPHIA   CLOUDY    71  61  70 W8        30.20F
PITTSBURGH     CLEAR     60  59  96 N3        30.23S
ROANOKE        CLEAR     62  56  80 SE7       30.27F
RICHMOND       CLOUDY    66  58  75 SW5       30.24F
RALEIGH        PTCLDY    62  52  69 CALM      30.28F

$$

ANZ530>537-060700-
MARINE OBSERVATIONS

STATION/POSITION TIME  TEMP    WIND        PRES
                       AIR SEA DIR/SP/G
                 (UTC) (F)     (DEG/KT/KT) (MB)
THOMAS PT LIGHT  0600   66 60  250/  5/  6 1023.4F
BALT KEY BRIDGE  0500   67     240/  9/  9 1022.8R
COVE POINT       0500   66     280/ 12/ 14 1023.9S
LEWISETTA        0500   69 68              1023.4S
SOLOMONS ISLAND  0506      63                N/A
PINEY POINT      0500          180/  6/  7   N/A

$$



USA.gov is the U.S. government's official web portal to all federal, state and local government web resources and services.